Location: Gönnheim
(49.4488°N, 8.2383°E)
Time: 00:05:34
(UTC+00:00)

Meteor 2-10 - Pass Details

Date: 19 May 2025
Orbit: 736 x 866 km, 81.2° (Epoch: 23 June)

Event Time Altitude Azimuth Distance (km) Brightness Sun altitude
Rises 21:01:55 0° 347° (NNW) 3,457 8.8 -13.8°
Reaches altitude 10° 21:04:23 10° 348° (NNW) 2,509 7.8 -14.0°
Maximum altitude 21:10:06 87° 78° (ENE) 855 4.2 -14.5°
Enters shadow 21:14:00 21° 168° (SSE) 1,811 5.4 -14.9°
